[[{"header":{"parameterUnit":"m.s-1","parameterCategory":1,"la1":30.2991,"la2":30.254,"lo1":-89.0895,"lo2":-89.0444,"dy":0.0017,"dx":0.0017,"nx":28,"ny":28,"refTime":"2023-11-22T03:00:00:Z","depth":0,"parameterNumber":2,"parameterNumberName":"U-component_of_WINDS"},"data":[0,0,0,0,0,0,0,0,0,0,0,0,0,0,0,0,0,0,0,0,0,0,0,0,0,0,0,0,0,0,0,0,0,0,0,0,0,0,0,0,0,0,0,0,0,0,0,0,0,0,0,0,0,0,0,0,0,0,3.3923,3.3923,0,3.3969,3.397,3.397,3.3944,3.3943,3.3941,3.394,3.3987,3.3989,3.3991,0,0,0,0,0,0,0,0,0,0,0,0,0,3.3811,3.3813,3.3923,3.3923,3.3924,3.3969,3.397,3.3971,3.3944,3.3943,3.3941,3.394,3.3986,3.3989,3.3992,0,0,0,0,0,0,0,0,0,0,0,0,0,3.3859,3.3814,3.3923,3.3916,3.3916,3.3969,3.397,3.3971,3.3944,3.3943,3.3941,3.3939,3.3985,3.3988,3.3992,3.4054,0,0,3.4003,3.4005,0,0,0,0,0,0,0,0,3.3856,3.3863,3.3917,3.3917,3.3917,3.3949,3.3948,3.3998,3.3945,3.3934,3.394,3.3938,3.3976,3.398,3.3993,3.4056,3.4058,3.4004,3.4006,3.4007,3.4008,0,0,0,0,0,0,0,3.3853,3.3861,3.3941,3.3917,3.3918,3.3911,3.3916,3.3957,3.3965,3.3935,3.3933,3.3939,3.3975,3.3989,3.3994,3.4058,3.4003,3.4007,3.4009,3.401,3.4176,3.4178,0,0,0,0,0,0,3.385,3.3858,3.394,3.3943,3.3881,3.3915,3.392,3.3941,3.3964,3.3966,3.394,3.3937,3.3984,3.3989,3.3995,3.407,3.4007,3.4011,3.4013,3.4174,3.4176,3.4179,0,0,0,0,0,0,3.3848,3.3858,3.3938,3.39,3.391,3.3919,3.3942,3.3942,3.3957,3.3969,3.397,3.3953,3.3983,3.399,3.404,3.4071,3.4012,3.4016,3.4171,3.4174,3.4178,3.4218,0,0,0,0,0,0,3.3845,3.3857,3.388,3.3901,3.3912,3.3982,3.3944,3.3945,3.3963,3.396,3.3981,3.3983,3.3982,3.4034,3.4043,3.4075,3.4019,3.4168,3.4173,3.4176,3.4214,3.4223,3.423,0,0,0,0,0,3.3841,3.3889,3.3882,3.3892,3.3941,3.3983,3.399,3.3988,3.3966,3.3989,3.3998,3.3982,3.4066,3.404,3.405,3.4083,3.4166,3.4171,3.4176,3.4211,3.4221,3.423,0,0,0,0,0,0,3.3871,3.3892,3.3883,3.394,3.396,3.3979,3.4008,3.3998,3.4025,3.402,3.4016,3.4021,3.4073,3.4083,3.4053,3.4144,3.4113,3.412,3.4136,3.4146,3.4153,3.415,3.4022,0,0,0,0,0,3.3885,3.3917,3.3934,3.3982,3.3993,3.3999,3.4017,3.4014,3.4035,3.4043,3.4055,3.4075,3.4106,3.4127,3.4156,3.4216,3.4221,3.4244,3.4252,3.4258,3.4264,3.4298,3.4308,3.4195,3.4195,3.4195,0,0,3.3912,3.3928,3.3948,3.3989,3.4004,3.4038,3.4006,3.4043,3.4068,3.4048,3.4096,3.4106,3.4128,3.4184,3.4209,3.4194,3.4297,3.4264,3.4269,3.4272,3.4304,3.4314,3.4324,3.4198,3.4198,3.4197,0,0,3.398,3.3995,3.4038,3.4054,3.4078,3.4082,3.4093,3.4114,3.4119,3.4167,3.4154,3.4184,3.4237,3.4254,3.427,3.4347,3.4334,3.4357,3.4397,3.443,3.4439,3.4447,3.4474,3.4484,3.4363,3.4363,3.4363,0,3.4012,3.4062,3.406,3.4099,3.4118,3.4102,3.4146,3.4161,3.4194,3.4207,3.4189,3.4257,3.4271,3.4331,3.435,3.4363,3.4375,3.4353,3.4438,3.4446,3.4453,3.4479,3.449,3.4365,3.4365,3.4365,3.4365,0,3.41,3.4136,3.4167,3.42,3.4222,3.4262,3.4267,3.429,3.4285,3.4292,3.4342,3.4358,3.4391,3.4405,3.4401,3.4465,3.4455,3.4438,3.4406,3.4466,3.4491,3.4501,3.4369,3.4368,3.4367,3.4367,0,0,3.4186,3.4219,3.4231,3.4246,3.4272,3.43,3.434,3.4373,3.4393,3.4416,3.4451,3.4497,3.4482,3.45,3.4498,3.4527,3.4588,3.4506,3.4507,3.4521,3.466,3.4673,3.4684,3.458,3.4582,3.4583,3.4658,0,3.4256,3.4327,3.4328,3.4393,3.4427,3.4414,3.4449,3.447,3.4477,3.4507,3.4515,3.4548,3.4526,3.4537,3.4565,3.4574,3.4616,3.4569,3.4612,3.4613,3.4606,3.4697,3.471,3.478,3.4668,3.467,3.4671,0,3.4346,3.4374,3.4443,3.4466,3.448,3.4512,3.4543,3.4571,3.4595,3.4598,3.462,3.4613,3.4655,3.4624,3.4682,3.465,3.4668,3.4675,3.4678,3.4681,3.4645,3.4703,3.4802,3.4813,3.4686,3.4685,3.4684,0,3.4403,3.4457,3.4506,3.4519,3.4547,3.457,3.4583,3.4604,3.4625,3.4652,3.4665,3.4697,3.4714,3.4739,3.4742,3.4719,3.4801,3.4769,3.4805,3.4805,3.4822,3.4821,3.4925,3.4835,3.4834,3.4834,3.4834,0,3.448,3.4523,3.4531,3.4561,3.4609,3.461,3.4658,3.4669,3.4688,3.472,3.4711,3.4742,3.4744,3.4775,3.4778,3.4826,3.4834,3.4838,3.4838,3.4839,3.4838,3.4849,3.4845,3.4837,3.4836,3.4836,3.4835,0,3.455,3.4558,3.461,3.4633,3.464,3.4675,3.4694,3.4723,3.4731,3.4772,3.4781,3.4793,3.483,3.4835,3.4878,3.488,3.4938,3.4933,3.493,3.4929,3.4965,3.4962,3.508,3.5096,3.4995,3.4996,3.4997,0,3.4599,3.4632,3.4659,3.468,3.4694,3.4728,3.4749,3.4752,3.4775,3.4805,3.483,3.4866,3.4895,3.4954,3.4967,3.5,3.4996,3.5035,3.5,3.5,3.4996,3.4994,3.4998,3.5041,3.5042,3.5043,3.5044,0,3.4684,3.4687,3.4718,3.4751,3.4777,3.4803,3.4827,3.4845,3.4851,3.4877,3.4914,3.4937,3.4982,3.5018,3.5051,3.5064,3.5056,3.5055,3.5065,3.5066,3.5062,3.5065,3.4948,3.5052,3.5051,3.5051,3.505,3.505,3.4745,3.4774,3.4798,3.4834,3.4853,3.4876,3.4905,3.4917,3.4948,3.4985,3.4985,3.5027,3.5051,3.5095,3.5111,3.5143,3.5131,3.5145,3.5149,3.5152,3.5156,3.5058,3.515,3.5149,3.5149,3.5149,3.5149,0,3.483,3.4846,3.4878,3.4913,3.4941,3.4932,3.4959,3.4983,3.502,3.5043,3.5072,3.5116,3.5152,3.5168,3.5203,3.5226,3.5223,3.5235,3.5233,3.5237,3.5165,3.5153,3.5237,3.5237,3.5237,3.5237,3.5237,3.5237,3.4878,3.4927,3.4932,3.4991,3.5006,3.5047,3.5064,3.5086,3.5105,3.5155,3.5184,3.5195,3.5216,3.5252,3.5285,3.5289,3.5302,3.5316,3.5318,3.5251,3.5242,3.5233,3.5221,3.5319,3.5319,3.5387,3.5387,3.5388]},{"header":{"parameterUnit":"m.s-1","parameterCategory":1,"la1":30.2991,"la2":30.254,"lo1":-89.0895,"lo2":-89.0444,"dy":0.0017,"dx":0.0017,"nx":28,"ny":28,"refTime":"2023-11-22T03:00:00:Z","depth":0,"parameterNumber":3,"parameterNumberName":"V-component_of_WINDS"},"data":[0,0,0,0,0,0,0,0,0,0,0,0,0,0,0,0,0,0,0,0,0,0,0,0,0,0,0,0,0,0,0,0,0,0,0,0,0,0,0,0,0,0,0,0,0,0,0,0,0,0,0,0,0,0,0,0,0,0,-6.2601,-6.2602,0,-6.2741,-6.2743,-6.2745,-6.2708,-6.2705,-6.2702,-6.27,-6.284,-6.2846,-6.2852,0,0,0,0,0,0,0,0,0,0,0,0,0,-6.2297,-6.2303,-6.2601,-6.2602,-6.2604,-6.2741,-6.2743,-6.2745,-6.2708,-6.2705,-6.2702,-6.2698,-6.2838,-6.2845,-6.2853,0,0,0,0,0,0,0,0,0,0,0,0,0,-6.2432,-6.2305,-6.26,-6.2602,-6.2604,-6.2741,-6.2743,-6.2745,-6.2709,-6.2705,-6.2701,-6.2697,-6.2835,-6.2844,-6.2854,-6.2996,0,0,-6.2883,-6.2887,0,0,0,0,0,0,0,0,-6.2425,-6.2444,-6.26,-6.2603,-6.2605,-6.2703,-6.2687,-6.2829,-6.271,-6.2669,-6.27,-6.2695,-6.2797,-6.281,-6.2845,-6.3002,-6.3008,-6.2883,-6.2889,-6.2893,-6.2896,0,0,0,0,0,0,0,-6.2416,-6.2437,-6.2656,-6.2603,-6.2605,-6.2595,-6.261,-6.2714,-6.2755,-6.2672,-6.267,-6.2687,-6.2798,-6.2836,-6.2848,-6.301,-6.2883,-6.2892,-6.2897,-6.2901,-6.3292,-6.3296,0,0,0,0,0,0,-6.2405,-6.243,-6.2652,-6.266,-6.2503,-6.2604,-6.2621,-6.2675,-6.2753,-6.2761,-6.2691,-6.2685,-6.2822,-6.2837,-6.2853,-6.3025,-6.2893,-6.2902,-6.2908,-6.3287,-6.3293,-6.3298,0,0,0,0,0,0,-6.2399,-6.2425,-6.2646,-6.2545,-6.2572,-6.2614,-6.2676,-6.268,-6.2719,-6.2768,-6.2774,-6.2723,-6.2819,-6.2839,-6.2961,-6.3029,-6.2906,-6.2915,-6.3282,-6.3289,-6.3295,-6.337,0,0,0,0,0,0,-6.239,-6.2423,-6.2478,-6.2546,-6.2578,-6.2753,-6.268,-6.2686,-6.2736,-6.273,-6.2799,-6.2807,-6.2817,-6.2947,-6.297,-6.304,-6.2922,-6.3276,-6.3285,-6.3293,-6.3361,-6.3379,-6.3393,0,0,0,0,0,-6.2379,-6.2492,-6.2481,-6.2508,-6.2648,-6.2757,-6.2775,-6.2786,-6.2741,-6.2797,-6.2828,-6.2805,-6.3018,-6.296,-6.2986,-6.3059,-6.3271,-6.3282,-6.3292,-6.3354,-6.3375,-6.3393,0,0,0,0,0,0,-6.243,-6.2501,-6.249,-6.2628,-6.2687,-6.2751,-6.2821,-6.2807,-6.2879,-6.287,-6.288,-6.2896,-6.302,-6.3052,-6.2985,-6.3201,-6.3138,-6.3154,-6.3176,-6.3196,-6.3212,-6.3202,-6.293,0,0,0,0,0,-6.2457,-6.2541,-6.2599,-6.2716,-6.2746,-6.2779,-6.2826,-6.283,-6.2891,-6.2915,-6.2955,-6.3014,-6.3094,-6.3147,-6.3223,-6.3366,-6.338,-6.3429,-6.3445,-6.3458,-6.3472,-6.355,-6.3572,-6.3333,-6.3332,-6.3332,0,0,-6.2514,-6.2564,-6.2616,-6.2727,-6.2773,-6.2859,-6.2799,-6.2893,-6.2957,-6.2929,-6.3047,-6.3078,-6.3144,-6.3277,-6.3338,-6.3307,-6.3541,-6.3471,-6.3481,-6.3488,-6.3563,-6.3586,-6.3606,-6.334,-6.3338,-6.3337,0,0,-6.2663,-6.2709,-6.2812,-6.2859,-6.293,-6.2951,-6.2976,-6.3042,-6.3063,-6.3182,-6.3163,-6.3238,-6.3376,-6.3424,-6.3467,-6.3635,-6.3616,-6.3659,-6.3742,-6.3818,-6.3837,-6.3854,-6.3915,-6.3936,-6.3673,-6.3673,-6.3674,0,-6.2724,-6.2855,-6.2866,-6.2962,-6.3011,-6.2991,-6.3095,-6.3141,-6.3232,-6.3267,-6.3231,-6.3405,-6.3448,-6.3593,-6.3634,-6.3669,-6.3697,-6.3652,-6.3834,-6.3851,-6.3867,-6.3924,-6.3947,-6.3678,-6.3678,-6.3677,-6.3677,0,-6.2927,-6.3018,-6.3092,-6.3184,-6.3241,-6.334,-6.3366,-6.3423,-6.3421,-6.3446,-6.3567,-6.3618,-6.3705,-6.374,-6.3739,-6.3884,-6.3863,-6.3831,-6.3768,-6.3894,-6.3949,-6.3971,-6.3685,-6.3683,-6.3682,-6.3681,0,0,-6.3111,-6.3208,-6.3235,-6.3277,-6.3354,-6.3424,-6.3522,-6.3609,-6.3658,-6.3721,-6.3804,-6.3922,-6.3893,-6.3942,-6.3946,-6.4013,-6.4143,-6.3972,-6.3974,-6.4003,-6.4307,-6.4332,-6.4357,-6.4131,-6.4136,-6.4139,-6.4302,0,-6.3267,-6.3442,-6.3455,-6.3612,-6.3696,-6.3679,-6.3764,-6.3821,-6.3846,-6.3921,-6.3948,-6.4032,-6.3987,-6.4017,-6.4082,-6.4114,-6.4205,-6.4102,-6.4208,-6.4211,-6.4192,-6.4385,-6.4411,-6.4563,-6.4323,-6.4327,-6.433,0,-6.3472,-6.3544,-6.371,-6.3777,-6.3812,-6.3889,-6.397,-6.4041,-6.4105,-6.4119,-6.4174,-6.4169,-6.4269,-6.4203,-6.4341,-6.4271,-6.4315,-6.4337,-6.4343,-6.4353,-6.4278,-6.4401,-6.4611,-6.4634,-6.4363,-6.436,-6.4358,0,-6.359,-6.3728,-6.3846,-6.3882,-6.3962,-6.4017,-6.4052,-6.4112,-6.4164,-6.4234,-6.4267,-6.4348,-6.4392,-6.4454,-6.4471,-6.4421,-6.4609,-6.4544,-6.4623,-6.4623,-6.4664,-6.4661,-6.4884,-6.4692,-6.4691,-6.4691,-6.469,0,-6.3763,-6.3865,-6.39,-6.3973,-6.4087,-6.4101,-6.4213,-6.4245,-6.4298,-6.4376,-6.4366,-6.4439,-6.4456,-6.4533,-6.4546,-6.4659,-6.4679,-6.4693,-6.4695,-6.4694,-6.4692,-6.4723,-6.4713,-6.4697,-6.4695,-6.4694,-6.4693,0,-6.3914,-6.3942,-6.4069,-6.4135,-6.4154,-6.4236,-6.4292,-6.4361,-6.4385,-6.4484,-6.4508,-6.4546,-6.4636,-6.4659,-6.4765,-6.4774,-6.4907,-6.4899,-6.4887,-6.4886,-6.4965,-6.4958,-6.5216,-6.525,-6.5035,-6.5037,-6.5039,0,-6.4023,-6.4101,-6.4177,-6.4229,-6.4267,-6.4351,-6.4404,-6.4421,-6.4476,-6.4555,-6.4615,-6.4703,-6.4775,-6.4918,-6.4955,-6.5036,-6.503,-6.5115,-6.5042,-6.5039,-6.5032,-6.5028,-6.5036,-6.5129,-6.5131,-6.5133,-6.5135,0,-6.4213,-6.4223,-6.4301,-6.4384,-6.4448,-6.4514,-6.4577,-6.4619,-6.4645,-6.4707,-6.48,-6.4855,-6.4965,-6.5052,-6.5135,-6.517,-6.5157,-6.5157,-6.518,-6.518,-6.517,-6.5177,-6.4925,-6.5151,-6.515,-6.5148,-6.5148,-6.5147,-6.4347,-6.4416,-6.4481,-6.4568,-6.4617,-6.4676,-6.4745,-6.4779,-6.4857,-6.4948,-6.4952,-6.5053,-6.5114,-6.5224,-6.5264,-6.5342,-6.5316,-6.5349,-6.5358,-6.5366,-6.5373,-6.5157,-6.5357,-6.5356,-6.5356,-6.5355,-6.5355,0,-6.4537,-6.4578,-6.4658,-6.4747,-6.4816,-6.4798,-6.4867,-6.4925,-6.5014,-6.5073,-6.5145,-6.5251,-6.5336,-6.538,-6.5464,-6.5518,-6.5515,-6.554,-6.5536,-6.5545,-6.5391,-6.5363,-6.5542,-6.5542,-6.5542,-6.5542,-6.5542,-6.5542,-6.4644,-6.4761,-6.4779,-6.4921,-6.496,-6.506,-6.51,-6.5155,-6.5202,-6.5322,-6.5393,-6.5422,-6.5475,-6.5564,-6.5641,-6.5652,-6.5683,-6.5712,-6.572,-6.5575,-6.5556,-6.5538,-6.5512,-6.5719,-6.5719,-6.5868,-6.5869,-6.587]}]]